GFSWCAN_prec_radar_192.txt.gz
Reflectivity
37 34 34 32 32 31 31 31 18 12 16 11 8 7 8 -3 -15 -17 -9 -2 -4 -20 -20 -20 -20 -20 -20 -20 -20 -20 -20 -20 -20 -20 -8 11 16 1 2 -13 -20 -20 -3 -20 2 -3 9 1 -1 19 3 23 20 0
35 31 34 34 35 35 33 29 12 5 8 -1 -1 -3 -14 -20 -20 -20 -20 -20 -20 -20 -20 -20 -20 -20 -20 -20 -20 -20 -20 -20 -8 -18 -18 -14 11 13 16 -20 -17 2 18 8 21 15 37 30 7 -20 28 10 -5 -20
34 34 36 33 31 29 27 17 16 12 5 -20 -20 -20 -20 -20 -20 -20 -20 -20 -20 -20 -20 -20 -20 -20 -20 -20 -20 -20 -20 -20 -20 -12 6 11 -14 -20 -9 -20 1 -20 -18 -20 13 9 13 9 1 4 15 9 13 -1
37 34 30 26 19 15 22 21 11 3 -13 -20 -20 -20 -20 -20 -20 -20 -20 -20 -20 -20 -20 -20 -20 -20 -20 -20 -20 -20 -20 -20 -20 -20 -20 -2 13 0 -20 -20 -20 -20 -20 -20 -3 -19 3 4 7 -20 -20 -7 -0 -11
27 19 11 7 5 4 5 3 -1 -14 -20 -20 -20 -20 -20 -20 -20 -20 -20 -20 -20 -20 -20 -20 -20 -20 -20 -20 -20 -20 -20 -20 -20 -20 -20 -20 -20 1 -20 -20 -20 -20 -20 -11 -6 2 1 -20 5 -10 -19 -20 -20 -20
12 9 4 -1 -6 -14 -15 -20 -20 -20 -20 -20 -20 -20 -20 -20 -20 -20 -20 -20 -20 -20 -20 -20 -20 -20 -20 -20 -20 -20 -20 -20 -20 -20 8 -20 -20 -20 -20 -20 -20 -20 -20 5 10 3 -17 -19 -20 -20 -20 -20 -20 -20
-2 -3 -4 -20 -20 -20 -20 -20 -20 -20 -20 -20 -20 -20 -20 -20 -20 -20 -20 -20 -20 -20 -20 -20 -20 -20 -20 -20 -20 -20 -20 -20 -10 -20 -20 -9 -20 -2 -3 3 -4 -1 -9 -19 -20 -20 -20 -20 -20 -20 -20 -20 -20 -20
-20 -18 -20 -20 -20 -20 -20 -20 -20 -20 -20 -20 -20 -20 -20 -20 -20 -20 -20 -20 -20 -20 -20 -20 -20 -20 -20 -20 -20 -20 -20 -20 -20 -20 -20 -20 -20 -17 3 -19 -20 -20 -20 -20 -20 -20 -20 -20 13 -20 -16 -20 -20 -20
-20 -20 -20 -20 -20 -20 -20 -20 -20 -20 -20 -20 -20 -20 -20 -20 -20 -20 -20 -20 -20 -20 -20 -20 -20 -20 -20 -20 -20 -20 -20 -20 10 -8 -20 1 8 -15 -20 -20 -20 -20 -20 -20 -20 -20 -17 19 15 -20 -20 -20 -20 -20
-20 -20 6 -20 -20 -20 -20 11 -20 -20 -20 -20 -20 -20 -20 -20 -20 -20 -20 -20 -20 -20 -20 -20 -20 -20 -20 -20 -20 -20 -20 -20 -20 -20 -20 -19 -20 -20 -20 -20 -20 -20 -20 -20 -2 -20 18 21 15 -20 -20 -20 -20 -20
24 26 24 20 -2 6 13 -4 -20 -20 -20 -20 -20 -20 -20 -20 -20 -20 -20 -20 -20 -20 -20 -20 -20 -20 -20 -20 -20 -20 -20 -20 -14 -20 -20 -20 17 6 -12 16 6 14 13 -2 -7 -15 -19 -20 -20 -20 -20 -20 -20 -20
-7 -17 22 33 33 35 25 13 13 -10 -20 -20 -17 -20 -20 -20 -20 -20 -20 -20 -20 -20 -20 -20 2 16 13 -9 -20 -20 -20 -20 -20 -20 3 4 24 12 31 22 -14 -15 -20 -20 1 -16 -20 -20 -13 -20 -20 -20 -6 -20
-15 2 15 16 19 19 11 -9 -20 -20 -20 -20 -20 -20 -20 -20 -20 -20 -20 -20 -20 -20 -20 -20 -4 12 -1 10 -7 -18 -20 -20 -20 -19 16 4 14 -20 -20 -20 -20 -20 -20 -20 -20 -20 -20 -20 -20 -20 -20 -14 -18 -20
-20 -20 -20 10 19 23 6 -20 -20 -20 -20 -20 -20 -20 -20 -20 -20 -20 -20 -20 -20 -3 8 0 -3 14 18 4 14 -12 -20 -18 -20 -16 1 19 21 20 17 35 4 -20 -20 -20 -10 -20 -20 -20 -20 -20 -20 -20 -18 -4
-20 -20 -20 -20 -20 -20 -20 -20 -20 -20 -20 -20 -20 -20 -20 -20 -20 -20 -20 -1 16 27 25 24 16 2 -15 -17 15 -20 -7 3 12 12 13 17 30 8 21 -12 -20 -20 -16 -3 -1 -20 -20 -20 -20 -20 -20 -20 -20 -14
-20 -20 -20 -20 -20 -20 -20 -20 -20 -20 -20 -20 -20 -20 -20 -20 -20 -20 -20 -11 -10 14 11 -3 -5 12 -19 -20 -20 -20 -3 -20 10 8 5 -1 -6 -20 -20 -20 -20 -20 -1 1 2 -20 -20 -20 -20 -20 -20 -20 -20 -20
-20 -20 -20 -20 -20 -20 -20 -20 -20 -20 -20 -20 -20 -20 -20 -20 -20 -20 -20 -20 -20 19 -20 -20 -11 20 28 8 8 17 3 -0 14 20 14 -16 -20 -20 -20 -20 -13 -18 -20 -8 -3 -16 -20 -20 -20 -20 -20 -20 -20 -20
-20 -20 -20 -20 -20 -20 -20 -20 -20 -20 -20 -20 -20 -20 -20 -20 -20 -20 -20 -20 5 12 -20 -10 -3 0 -20 -20 -5 12 18 10 -2 -13 -20 -20 -20 -20 -20 -20 -20 -20 -20 -20 -20 -20 -18 -19 -20 -20 -20 1 2 -6
-20 -20 -20 -20 -20 -20 -20 -20 -20 -20 -20 -20 -20 -20 -20 -20 -20 -20 -20 -19 -18 -13 -16 -20 -14 -20 -20 -19 -19 -20 -20 -15 -19 -20 -20 -20 -20 -20 -20 -20 -20 -12 -20 -20 -20 -20 -20 -16 -17 -19 -20 -0 10 11
-4 -20 -20 -17 -20 -20 -20 1 -20 -11 -20 -20 -20 -20 -20 -20 -20 -20 -20 -19 -20 -17 6 -9 -20 -20 -20 -20 -20 -20 -17 -9 -20 -20 -20 -20 -20 -20 -16 -11 -5 0 -20 -20 -20 -20 -20 -16 -4 2 -5 2 7 11
-20 -10 5 -20 12 4 20 -20 -20 -20 -20 -20 -20 -20 -20 -20 -20 9 13 11 -6 -20 9 -15 -20 -20 -18 5 -20 -20 -20 -20 -20 3 2 -20 -20 -20 -20 -20 -20 -20 -20 -20 -20 -18 -20 -13 -0 8 12 12 2 -7
-7 9 15 26 17 -16 -20 -20 -20 -20 -10 -20 -20 -20 -20 -20 -20 -20 -7 12 9 -8 3 -20 -19 -19 -20 -17 -15 -20 -20 -20 -20 -20 -20 -20 -19 -20 -20 -19 -20 -19 -20 -20 -20 -20 -20 -20 -9 3 9 11 8 8
23 33 19 -20 -7 -7 -20 1 5 -17 12 -20 -20 -20 -20 -3 -20 -20 -20 -20 -20 -20 -20 -20 -20 -20 -20 -1 -20 -20 -20 -20 -20 -20 -20 -20 -20 -20 -20 -20 -1 -1 -20 -16 -1 -5 -20 -20 -0 4 4 6 13 13
-13 -11 -20 -16 -11 8 8 -20 -20 -20 -20 -20 -7 -19 -20 -13 -20 -20 -15 -20 -18 -20 -20 -20 -20 -20 -20 -20 -20 -20 -20 -20 -20 -20 -20 -20 -20 -20 -20 -20 7 13 13 10 5 2 -5 -6 2 2 4 13 11 9
-20 -20 -20 -20 -20 -20 -20 -20 -20 -20 -20 -20 -20 -20 -20 -20 -20 -20 -20 -20 -20 -20 -20 -20 -20 -20 -20 -20 -20 -20 -20 -20 -20 -20 -20 -20 -20 -20 -20 -20 -20 -3 4 1 4 7 5 -4 3 4 -12 -11 7 10
-20 -20 -20 -20 -20 -20 -20 -20 -20 -20 -20 -20 -20 -20 -20 -20 -20 -20 -20 -20 -20 -20 -20 -20 -20 -20 -20 -20 -20 -20 -20 -20 -20 -20 -20 -20 -20 -20 -20 -20 -20 -13 -19 -1 -20 -10 -5 -9 -17 -12 0 5 7 6
-20 -20 -20 -20 -20 -20 -20 -20 -20 -20 -20 -20 -20 -20 -20 -20 -20 -20 -20 -20 -20 -20 -20 -20 -20 -20 -20 -19 -20 -20 -20 -20 -20 -20 -19 -20 -20 -18 -13 -11 -17 -7 -18 -16 -18 -18 -5 -1 -16 -20 -9 2 -0 -8
-20 -20 -20 -20 -20 -20 -20 -20 -20 -20 -20 -20 -20 -20 -20 -20 -20 -20 -20 -20 -20 -20 -20 -20 -20 -20 -20 -20 -20 -20 -20 -20 -20 -20 -20 -20 -20 -20 -20 -18 -18 -20 -20 -20 -20 -20 -20 -19 -18 -20 -20 -13 -4 -10
-20 -20 -20 -20 -20 -20 -20 -20 -20 -20 -20 -20 -20 -20 -20 -20 -20 -20 -20 -20 -20 -20 -20 -20 -20 -20 -20 -20 -20 -20 -20 -20 -20 -20 -20 -20 -20 -20 -20 -20 -20 -20 -20 -20 -20 -20 -20 -20 -20 -20 -20 -20 -20 -20
-20 -20 -20 -20 -20 -20 -20 -20 -20 -20 -20 -20 -20 -20 -20 -20 -20 -20 -20 -20 -20 -20 -20 -20 -20 -20 -20 -20 -20 -20 -20 -20 -20 -20 -20 -20 -20 -20 -20 -20 -20 -20 -20 -20 -20 -9 -14 -16 -9 -15 -20 -20 -20 -20
-20 -20 -20 -20 -20 -20 -20 -20 -20 -20 -20 -20 -20 -20 -20 -20 -20 -20 -20 -20 -20 -20 -20 -20 -20 -20 -20 -20 -20 -20 -20 -20 -20 -20 -20 -20 -20 -20 -20 -20 -20 -20 -20 -20 -20 -20 -20 -20 -20 -20 -20 -20 -20 -20
-20 -20 -20 -20 -20 -20 -20 -20 -20 -20 -20 -20 -20 -20 -20 -20 -20 -20 -20 -20 -20 -20 -20 -20 -20 -20 -20 -20 -20 -20 -20 -20 -20 -20 -20 -20 -20 -20 -20 -20 -20 -20 -20 -20 -20 -20 -20 -20 -20 -20 -20 -20 -20 -20
-20 -20 -20 -20 -20 -20 -20 -20 -20 -20 -20 -20 -20 -20 -20 -20 -20 -20 -20 -20 -20 -20 -20 -20 -20 -20 -20 -20 -20 -20 -20 -20 -20 -20 -20 -20 -20 -20 -20 -20 -20 -20 -20 -20 -20 -20 -20 -20 -20 -20 -20 -20 -20 -20

GFSWCAN_prec_radar_195.txt.gz
Reflectivity
40 33 35 35 31 28 33 34 35 35 35 35 35 35 33 32 26 26 31 27 13 9 12 7 -3 -3 1 -8 -18 -20 -20 -20 -20 -20 -20 -20 -19 -20 -17 -20 -20 -20 -20 -20 2 13 4 -20 -20 21 6 18 -2 -15
26 22 31 33 34 34 35 33 31 31 32 30 31 26 22 20 16 10 9 2 -4 -15 -20 -20 -20 -20 -20 -20 -20 -20 -20 -20 -20 -20 -20 -20 -6 -20 -13 -20 -10 -13 10 13 19 11 -20 -11 13 26 16 20 23 2
29 25 29 25 32 32 28 29 28 27 26 20 15 9 7 5 7 8 5 3 -18 -15 -8 -20 -20 -20 -20 -20 -20 -20 -20 -20 -20 -20 -20 -20 -2 -20 -20 -20 -20 -20 -18 14 -16 -19 -20 -20 10 16 16 21 29 20
34 33 37 36 34 30 27 16 5 -5 2 4 -6 -1 2 -9 -11 -10 -20 -20 -20 -20 -20 -20 -20 -20 -20 -20 -20 -20 -20 -20 -20 -20 -20 -20 -13 -20 -20 -20 -20 -20 -20 -19 -20 -20 -14 9 13 -2 -16 6 -10 -13
39 38 35 31 29 28 22 12 5 -15 -20 -20 -20 -20 -20 -20 -20 -20 -20 -20 -20 -20 -20 -20 -20 -20 -20 -20 -20 -20 -20 -20 -20 -20 -20 -20 -20 -6 -20 -20 -20 -18 -20 -17 -20 -20 -4 -5 -15 13 14 -20 -20 -20
27 25 21 18 16 17 8 -4 -20 -20 -20 -20 -20 -20 -20 -20 -20 -20 -20 -20 -20 -20 -20 -20 -20 -20 -20 -20 -20 -20 -20 -20 -20 -20 -20 -20 -20 -19 6 -20 -20 -20 -20 -20 -20 -20 -20 -20 -20 -20 10 5 -20 -20
2 -2 1 3 -5 -6 -9 -18 -20 -20 -20 -20 -20 -20 -20 -20 -20 -20 -20 -20 -20 -20 -20 -20 -20 -20 -20 -20 -20 -20 -20 -20 -20 -20 -20 -20 -20 4 10 5 -15 -20 -20 -20 -20 -20 -20 -20 -20 -20 -20 -20 -20 -20
-17 -20 -20 -20 -20 -20 -20 -20 -20 -20 -20 -20 -20 -20 -20 -20 -20 -20 -20 -20 -20 -20 -20 -20 -20 -20 -20 -20 -20 -20 -20 -20 -20 -20 -20 -20 -17 -16 -8 -20 -20 -20 -20 -20 -20 -20 -20 -20 -20 -20 6 21 -4 -20
-20 -20 -20 -20 -20 -20 -20 -20 -20 -20 -20 -20 -20 -20 -20 -20 -20 -20 -20 -20 -20 -20 -20 -20 -20 -20 -20 -20 -20 -20 -20 -20 -20 -20 -20 -14 7 -14 -20 -20 -20 -20 -20 -20 -20 -20 -20 -20 -20 12 14 22 14 -20
-20 -20 -20 -20 -20 -20 -20 -20 -20 -20 -20 -20 -20 -20 -20 -20 -20 -20 -20 -20 -20 -20 -20 -20 -20 -20 -20 -20 -20 -20 -20 -20 -20 -20 -20 -20 -19 -20 -20 -20 -20 -20 -19 -20 -20 -20 -20 -20 -20 -8 9 -20 -20 -20
-20 -20 -20 -20 -20 -20 -20 -20 -20 -20 -20 -20 -20 -20 -20 -20 -20 -20 -20 -20 -20 -20 -20 -20 -20 -20 -20 -20 -20 -20 -20 -20 -20 -20 -20 -20 -20 20 36 16 23 5 1 -6 7 -19 -15 -20 -20 -20 -20 -20 -20 -20
-3 3 -5 -2 -20 -20 -20 -20 -20 -20 -20 -20 -20 -20 -20 -20 -20 -20 -20 -20 -20 -20 -20 -20 -20 -20 -14 12 15 -20 -20 -20 -20 -20 -15 -20 13 40 33 10 -20 -9 -20 -20 -20 -20 -20 -20 -20 -20 -20 -19 -13 -20
16 17 17 9 14 -13 -20 -20 -20 -20 -20 -20 -20 -20 -20 -20 -20 -20 -20 -20 -20 -20 -20 -20 -20 0 -20 -3 8 -20 -20 -20 -20 -20 -17 -0 -2 -10 2 -20 -20 4 -20 -20 -20 -20 -20 -20 -20 -20 -20 -20 -20 -20
14 11 14 15 30 30 -0 -20 -20 -20 -20 -20 -20 -20 -20 -20 -20 -20 -20 -20 -20 -18 3 17 15 7 -19 10 -5 4 -20 -20 -20 -16 17 15 4 25 23 18 25 -14 -20 -20 -10 -18 -20 -20 -20 -20 -20 -20 -20 -10
-15 11 5 9 -4 8 -20 -20 -20 -20 -20 -20 -20 -20 -20 -20 -20 -20 -20 -20 -18 -14 2 21 14 -6 -19 -13 -3 9 -19 -20 -9 -2 20 18 21 7 9 7 -20 -20 -20 -5 -20 -12 -11 -13 -14 -20 -20 -20 -20 -20
-20 -20 -20 12 17 -13 -20 -20 -20 -20 -20 -20 -20 -20 -20 -20 -20 -20 -20 -20 -20 -20 -20 2 -18 10 -4 -17 -20 -10 14 6 -1 6 16 9 -14 -20 -20 -20 -20 -20 -20 -20 -20 -20 -20 -20 -20 -20 -20 -19 -20 -20
-20 -20 -20 -20 -20 -20 -20 -20 -20 -20 -20 -20 -20 -20 -20 -20 -20 -20 -20 -20 -20 10 -20 -18 -17 14 8 17 10 16 12 2 18 19 11 -17 -20 -20 -20 -20 -20 -20 -20 -20 -20 -20 -20 -20 -20 -20 -20 -10 -17 -20
-20 -20 -20 -20 -20 -20 -20 -20 -20 -20 -20 -20 -20 -20 -20 -20 -20 -20 -20 -20 4 11 4 10 -1 -8 -20 -20 -20 -20 -20 -20 -20 -20 -20 -20 -20 -20 -19 -19 -20 -20 -20 -20 -20 -18 -20 -20 -20 -20 -20 -19 3 0
-20 -20 -20 -20 -20 -20 -20 -20 -20 -20 -20 -20 -20 -20 -20 -20 -20 -20 -20 -20 -11 -20 -20 -20 -18 -20 -20 -20 -20 -20 -20 -20 -20 -20 -20 -20 -20 -20 -6 4 4 -16 -18 3 -19 -20 -20 -20 -20 -18 -17 -18 -10 5
-20 -20 -16 -20 -20 -20 -20 -20 -20 -20 -20 -20 -20 -20 -20 -20 -20 -20 -20 -20 -13 -19 -20 -5 -20 -20 -20 -20 -20 -20 -20 -17 -20 -20 -20 -20 -20 -16 -20 -20 -20 -20 -5 -14 -20 -20 -20 -20 -15 -16 -5 -11 -16 -15
-20 -3 -18 -20 -20 -20 -10 -20 -20 -20 -20 -20 -20 -20 -20 -20 -20 -20 -20 1 17 13 -20 -20 -20 -20 -19 -4 -16 -20 -20 -20 -20 3 -20 -20 -20 -20 -20 -20 -20 -20 -20 -20 -20 -20 -20 -20 -20 -17 4 7 -12 10
-17 -15 7 9 12 -1 2 -20 -20 -3 5 -20 -20 -20 -20 -20 -20 -20 -20 -20 -20 -20 -20 -20 -20 -20 -20 -20 -19 -20 -20 -20 -20 -20 -20 -20 -20 -20 -20 -20 -20 -20 -20 -20 -19 -17 -19 -20 -20 -20 -9 8 10 9
20 18 16 16 -18 -20 -20 -18 -20 -20 -20 -20 -20 -20 -20 -20 -20 -20 -20 -20 -20 -20 -20 -20 -20 -20 -20 -20 -20 -20 -20 -20 -20 -20 -20 -20 -20 -20 -20 -20 -20 -20 -20 8 14 11 8 -2 -10 -11 3 6 4 4
-6 21 18 -14 -20 -17 1 -6 -16 -20 -20 -20 -20 -20 -20 -20 -20 -20 -15 -20 -20 -20 -20 -20 -20 -20 -20 -20 -20 -20 -20 -20 -20 -20 -20 -20 -20 -20 -20 -20 -20 -19 3 12 16 12 10 9 4 -13 3 5 6 3
-20 -20 -20 -20 -20 -20 -20 -20 -20 -20 -20 -20 -20 -20 -20 -20 -20 -20 -20 -20 -20 -20 -20 -20 -20 -20 -20 -20 -20 -20 -20 -20 -20 -20 -20 -20 -20 -20 -20 -20 -20 -14 -20 0 6 7 6 6 -11 -2 6 6 5 0
-13 -20 -20 -20 -20 -20 -20 -20 -20 -20 -20 -20 -20 -20 -20 -20 -20 -20 -20 -20 -20 -20 -20 -20 -20 -20 -20 -20 -20 -20 -20 -20 -20 -20 -20 -20 -20 -20 -20 -20 -20 2 -18 -14 5 5 3 -2 -12 -18 -20 -15 -2 -1
-20 -20 -20 -20 -20 -20 -20 -20 -20 -20 -20 -20 -20 -20 -20 -20 -20 -20 -20 -20 -20 -20 -20 -20 -20 -20 -20 -20 -20 -20 -20 -20 -20 -20 -20 -20 -20 -20 -20 -20 -17 -9 -11 -7 -3 -8 -20 -20 -20 -8 -5 -1 -4 -16
-20 -20 -20 -20 -20 -20 -20 -20 -20 -20 -20 -20 -20 -20 -20 -20 -20 -20 -20 -20 -20 -20 -20 -20 -20 -20 -20 -20 -20 -20 -20 -20 -20 -20 -20 -20 -20 -20 -20 -20 -18 -16 -19 -15 -16 -20 -20 -20 -20 -20 -20 -19 -19 -19
-20 -20 -20 -20 -20 -20 -20 -20 -20 -20 -20 -20 -20 -20 -20 -20 -20 -20 -20 -20 -20 -20 -20 -20 -20 -20 -20 -20 -20 -20 -20 -20 -20 -20 -20 -20 -20 -20 -20 -20 -20 -20 -20 -20 -20 -20 -20 -20 -20 -20 -20 -20 -20 -20
-20 -20 -20 -20 -20 -20 -20 -20 -20 -20 -20 -20 -20 -20 -20 -20 -20 -20 -20 -20 -20 -20 -20 -20 -20 -20 -20 -20 -20 -20 -20 -20 -20 -20 -20 -20 -20 -20 -20 -20 -20 -20 -20 -20 -20 -14 -19 -20 -20 -20 -20 -20 -20 -20
-20 -20 -20 -20 -20 -20 -20 -20 -20 -20 -20 -20 -20 -20 -20 -20 -20 -20 -20 -20 -20 -20 -20 -20 -20 -20 -20 -20 -20 -20 -20 -20 -20 -20 -20 -20 -20 -20 -20 -20 -20 -20 -20 -20 -20 -20 -20 -20 -20 -20 -20 -20 -20 -20
-20 -20 -20 -20 -20 -20 -20 -20 -20 -20 -20 -20 -20 -20 -20 -20 -20 -20 -20 -20 -20 -20 -20 -20 -20 -20 -20 -20 -20 -20 -20 -20 -20 -20 -20 -20 -20 -20 -20 -20 -20 -20 -20 -20 -20 -20 -20 -20 -20 -20 -20 -20 -20 -20
-20 -20 -20 -20 -20 -20 -20 -20 -20 -20 -20 -20 -20 -20 -20 -20 -20 -20 -20 -20 -20 -20 -20 -20 -20 -20 -20 -20 -20 -20 -20 -20 -20 -20 -20 -20 -20 -20 -20 -20 -20 -20 -20 -20 -20 -20 -20 -20 -20 -20 -20 -20 -20 -20

GFSWCAN_prec_radar_198.txt.gz
Reflectivity
19 36 40 34 29 29 29 26 28 28 26 27 27 22 26 28 32 30 38 38 34 34 34 31 30 33 32 26 13 6 4 2 2 -4 -17 -20 -20 -20 -20 -20 -20 -20 -20 -10 8 20 7 -20 -20 -20 -20 -20 8 18
40 36 41 40 34 33 35 31 30 31 28 27 32 32 33 35 31 31 31 29 23 23 27 23 25 20 13 14 12 9 2 -3 -2 -4 -11 -20 -20 -20 -20 -20 -20 -20 -19 -19 1 -19 -10 -14 17 -20 -20 -20 9 18
35 41 40 38 34 34 34 38 36 36 38 36 34 32 32 34 31 29 25 22 17 16 13 11 12 11 11 8 2 -2 -6 -15 -20 -20 -20 -20 -20 -20 -20 -20 -20 -20 13 17 -13 -1 12 -20 -20 -19 -20 -20 -10 16
39 38 34 30 33 34 35 35 36 38 37 35 33 32 28 27 25 18 13 12 12 14 12 11 8 -1 -12 -12 -17 -20 -20 -20 -20 -20 -20 -20 -20 -20 -20 -20 -20 -20 -20 -20 -20 -20 -20 -20 11 6 -20 -20 -20 17
34 36 33 31 31 30 31 28 28 28 24 22 18 14 12 12 10 10 7 3 -4 0 -7 -17 -20 -20 -20 -20 -20 -20 -20 -20 -20 -20 -20 -20 -20 -20 -20 -20 -20 -20 -20 -20 -20 -20 -20 -20 -20 -20 -20 -20 -20 -20
34 33 33 29 28 21 16 15 12 11 8 5 9 8 5 0 -10 -19 -20 -20 -20 -20 -20 -20 -20 -20 -20 -20 -20 -20 -20 -20 -20 -20 -20 -20 -20 -20 -20 -20 -20 -20 -20 -20 -20 -20 -20 -20 -20 -20 -20 -20 -20 -20
30 29 25 15 9 1 0 -4 -8 -20 -20 -20 -20 -20 -19 -20 -20 -20 -20 -20 -20 -20 -20 -20 -20 -20 -20 -20 -20 -20 -20 -20 -20 -20 -20 -20 -20 2 -4 4 -8 -20 -20 -20 -20 -20 -20 -20 -20 -20 -20 -20 -20 -20
16 12 13 12 11 9 -1 -20 -20 -20 -20 -20 -20 -20 -20 -20 -20 -20 -20 -20 -20 -20 -20 -20 -20 -20 -20 -20 -20 -20 -20 -20 -20 -20 -20 -20 -20 -20 1 -6 -18 -20 -20 -20 -20 -20 -20 -20 -20 -20 -20 -20 -20 -12
-1 0 -6 -20 -19 -14 -20 -20 -20 -20 -20 -20 -20 -20 -20 -20 -20 -20 -20 -20 -20 -20 -20 -20 -20 -20 -20 -20 -20 -20 -20 -20 -20 -20 -20 -20 -20 -15 -20 -20 -20 -20 -20 -20 -20 -20 -20 -20 -20 -20 -20 -0 15 17
-20 -20 -20 -20 -20 -20 -20 -20 -20 -20 -20 -20 -20 -20 -20 -20 -20 -20 -20 -20 -20 -20 -20 -20 -20 -20 -20 -20 -20 -20 -20 -20 -20 -20 -20 -19 -19 -20 -20 -19 -19 23 -6 21 31 9 2 21 28 1 -17 -20 -20 -20
-20 -20 -20 -20 -20 -20 -20 -20 -20 -20 -20 -20 -20 -20 -20 -20 -20 -20 -20 -20 -20 -20 -20 -20 -20 -20 -20 -20 -20 -20 -20 -20 -18 -20 -20 -20 -20 -20 -2 42 30 8 -12 -20 -10 -13 -20 -19 -20 -17 -3 -15 -13 -10
-20 -20 -20 -20 -20 -20 -20 -20 -20 -20 -20 -20 -20 -20 -20 -20 -20 -20 -20 -20 -20 -20 -20 -20 -20 -20 -20 -20 -20 -20 -20 -20 -20 -20 6 -20 -20 -8 10 39 10 -20 -13 -20 -20 -20 -20 -20 4 -14 -20 -7 6 -19
-11 -18 -20 -20 -20 -20 -20 -20 -20 -20 -20 -20 -20 -20 -20 -20 -20 -20 -20 -20 -20 -20 -20 -20 -19 -20 -20 -11 -20 -18 -20 -20 -20 -20 -20 -20 4 19 -9 24 4 25 -20 -20 -20 -20 -20 -20 -20 -20 -20 -20 -20 -20
9 12 13 -20 -2 -20 -20 -20 -20 -20 -20 -20 -20 -20 -20 -20 -20 -20 -20 -20 -20 -20 -20 -20 0 8 -20 -20 -20 -20 -20 -20 -20 -20 -9 -4 27 16 -16 -20 -20 -20 -20 -20 -20 -20 -20 -20 -20 -20 -20 -20 -20 -20
8 20 27 20 -17 -20 -20 -20 -20 -20 -20 -20 -20 -20 -20 -20 -20 -20 -20 -20 -20 -20 -20 -20 -20 -20 -20 -20 -20 7 4 -20 -20 13 16 18 15 3 -3 -2 -20 -18 -20 -20 -20 -20 -20 -20 -20 -20 -20 -20 -20 -20
9 -4 -4 -12 -20 -20 -20 -20 -20 -20 -20 -20 -20 -20 -20 -20 -20 -20 -20 -20 -20 -20 -20 -20 -19 -18 -20 -20 -20 -15 -18 -20 -20 -4 1 -15 -18 -1 -6 -18 -20 -11 -1 -20 -20 -20 -20 -20 -20 -20 -20 -20 -20 -20
-20 -14 12 -20 -20 -20 -20 -20 -20 -20 -20 -20 -20 -20 -20 -20 -20 -20 -20 -20 -20 -20 -20 -12 -11 -16 3 -20 -10 -20 7 7 -8 -9 -20 -20 -20 -20 -20 3 -20 -18 -20 -20 -20 -20 -20 -20 -20 -20 -20 -20 -20 -20
-20 -20 -20 -20 -20 -20 -20 -20 -20 -20 -20 -20 -20 -20 -20 -20 -20 -20 -20 -20 -20 -17 -9 -2 -20 -20 -20 -20 -20 -20 -20 -20 -20 -20 -20 -20 -20 -20 -20 -20 -20 -20 -20 -20 -20 -20 -20 -17 -20 -20 -20 -20 -20 -20
-20 -20 -20 -20 -20 -20 -20 -20 -20 -20 -20 -20 -20 -20 -20 -20 -20 -20 -20 -20 -20 -20 -20 -20 -12 -20 -11 -20 -20 -20 -20 -20 -20 -20 -20 -20 -20 -20 -20 -20 -20 -20 -20 -20 -20 -20 -20 -20 -20 -20 -20 -20 -20 -19
-20 -20 -20 -20 -20 -20 -20 -20 -20 -20 -20 -20 -20 -20 -20 -20 -20 -20 -20 -20 -20 8 -13 -15 -20 -20 -20 -20 -20 -20 -20 -20 -20 -20 -20 -20 -20 -20 -20 -20 -20 -20 -18 -20 -20 -2 -20 -20 -20 -17 -15 -17 -19 -20
-20 -7 -20 -20 -20 -20 -20 -20 -20 -20 -20 -20 -20 -20 -20 -20 -20 -20 -20 -20 -11 -5 -19 -20 -20 -20 -19 -18 -20 -20 -20 -20 -20 1 -9 -20 -20 -20 -20 -20 -20 -20 -20 -20 -20 -20 -20 -20 -20 -20 6 1 -7 7
-20 -20 -9 -16 -20 -20 -20 -20 -20 -20 -12 -20 -20 -20 -20 -20 -20 -20 -20 -20 -20 -20 -20 -20 -20 -20 -20 -18 -20 -20 -20 -20 -20 -20 -20 -20 -20 -20 -20 -20 -20 -20 -20 -20 -20 -20 -16 -10 -20 -20 0 9 12 12
0 -1 5 11 -14 -20 -20 -20 -20 -20 -20 -20 -20 -20 -20 -20 -20 -20 0 -20 -20 -20 -20 -20 -20 -20 -20 -20 -20 -20 -20 -20 -20 -20 -20 -20 -20 -20 -20 -20 -20 -20 -20 -20 -20 -17 10 8 -19 -20 -19 -8 0 5
-9 -6 10 5 -20 -20 -20 -13 -18 -20 -19 -20 -20 -20 -20 -20 -20 -20 -20 -20 -20 -20 -20 -20 -20 -20 -20 -20 -20 -20 -20 -20 -20 -20 -20 -20 -20 -20 -20 -20 -20 -20 -20 -20 -20 0 13 13 5 -1 -9 -20 -20 -18
-10 -20 -20 -20 -20 -17 -20 -20 -20 -20 -20 -20 -20 -20 -20 -20 -20 -20 -20 -20 -20 -20 -20 -20 -20 -20 -20 -20 -20 -20 -20 -20 -20 -20 -20 -20 -20 -20 -20 -20 -20 -15 -20 -20 -6 7 4 -13 -17 -15 -11 -6 -20 -20
-19 -20 -20 -20 -20 -20 -20 -20 -20 -20 -20 -20 -20 -20 -20 -20 -20 -20 -20 -20 -20 -20 -20 -20 -20 -20 -20 -20 -20 -20 -20 -20 -20 -20 -20 -20 -20 -20 -20 -20 -20 -20 -20 -4 3 8 -1 -15 -20 -20 -20 -20 -20 -20
-20 -20 -20 -20 -20 -20 -20 -20 -20 -20 -20 -20 -20 -20 -20 -20 -20 -20 -20 -20 -20 -20 -20 -20 -20 -20 -20 -20 -20 -20 -20 -20 -20 -20 -20 -20 -20 -20 -20 -20 -20 -20 -20 -10 3 -4 -20 -20 -20 -20 -20 -20 -20 -20
-20 -20 -20 -20 -20 -20 -20 -20 -20 -20 -20 -20 -20 -20 -20 -20 -20 -20 -20 -20 -20 -20 -20 -20 -20 -20 -20 -20 -20 -20 -20 -20 -20 -20 -20 -20 -20 -20 -20 -20 -20 -20 -20 -20 -20 -20 -20 -20 -20 -20 -20 -20 -20 -20
-20 -20 -20 -20 -20 -20 -20 -20 -20 -20 -20 -20 -20 -20 -20 -20 -20 -20 -20 -20 -20 -20 -20 -20 -20 -20 -20 -20 -20 -20 -20 -20 -20 -20 -20 -20 -20 -20 -20 -20 -20 -20 -20 -20 -20 -20 -20 -20 -20 -20 -20 -20 -20 -20
-20 -20 -20 -20 -20 -20 -20 -20 -20 -20 -20 -20 -20 -20 -20 -20 -20 -20 -20 -20 -20 -20 -20 -20 -20 -20 -20 -20 -20 -20 -20 -20 -20 -20 -20 -20 -20 -20 -20 -20 -20 -20 -20 -20 -20 -20 -20 -20 -20 -20 -20 -20 -20 -20
-20 -20 -20 -20 -20 -20 -20 -20 -20 -20 -20 -20 -20 -20 -20 -20 -20 -20 -20 -20 -20 -20 -20 -20 -20 -20 -20 -20 -20 -20 -20 -20 -20 -20 -20 -20 -20 -20 -20 -20 -20 -20 -20 -20 -20 -20 -20 -20 -20 -20 -20 -20 -20 -20
-20 -20 -20 -20 -20 -20 -20 -20 -20 -20 -20 -20 -20 -20 -20 -20 -20 -20 -20 -20 -20 -20 -20 -20 -20 -20 -20 -20 -20 -20 -20 -20 -20 -20 -20 -20 -20 -20 -20 -20 -20 -20 -20 -20 -20 -20 -20 -20 -20 -20 -20 -20 -20 -20
-20 -20 -20 -20 -20 -20 -20 -20 -20 -20 -20 -20 -20 -20 -20 -20 -20 -20 -20 -20 -20 -20 -20 -20 -20 -20 -20 -20 -20 -20 -20 -20 -20 -20 -20 -20 -20 -20 -20 -20 -20 -20 -20 -20 -20 -20 -20 -20 -20 -20 -20 -20 -20 -20

GFSWCAN_prec_radar_204.txt.gz
Reflectivity
-10 8 -2 11 -12 -20 -20 10 14 14 11 14 15 -20 -20 -15 -8 11 25 29 27 35 34 28 13 7 10 6 27 33 31 30 29 7 4 -12 -20 -20 -20 -13 -20 -12 -3 8 11 12 10 -20 -20 -20 -20 -20 -20 -20
-3 -16 -20 -20 -20 -20 -20 -14 -4 9 15 -20 0 -14 -19 -3 -6 22 28 24 22 31 36 33 25 17 13 25 29 32 31 17 8 8 -4 -20 -20 -20 -18 -13 -20 -13 -20 -20 -20 -20 -20 -20 -20 -20 -20 -20 -20 -20
-20 -20 -17 10 2 4 6 0 1 -2 8 6 -20 -20 -20 -20 12 17 24 21 31 32 35 31 28 28 32 30 28 24 20 0 -3 4 11 -19 -20 -20 -20 -20 -20 -20 -20 -20 -20 -20 -20 -20 -20 -20 -20 -20 -20 -20
-18 -8 21 22 22 -1 13 20 21 5 7 9 -20 -20 -20 -14 26 30 31 27 22 27 28 31 37 34 31 28 26 24 19 15 13 10 -3 -20 -20 -20 -20 -20 -20 -20 -20 -20 -20 -20 -20 -20 -20 -20 -20 -20 -20 -20
26 27 34 34 27 31 -16 -7 17 14 21 4 -3 -10 10 26 30 19 28 32 28 17 31 28 31 26 22 16 16 14 9 3 2 6 2 -3 -20 -20 -20 -20 -20 -12 -18 -20 -20 -20 -20 -20 -20 -20 -20 -20 -20 -20
34 40 34 38 30 19 -9 -17 11 23 16 24 16 24 28 28 21 30 34 36 26 26 25 21 31 30 18 6 3 -0 -8 -15 -13 -11 -20 -20 -20 -20 -20 -20 -20 -20 -20 -20 -20 -20 -20 -20 -20 -20 -20 -20 -20 -20
38 37 37 35 33 17 24 31 32 27 22 33 38 36 38 37 31 18 18 27 24 15 11 17 19 17 13 5 3 -0 -6 -12 -18 -20 -20 -20 -20 -20 -20 -20 -20 -20 -20 -20 -20 -20 -20 -20 -20 -20 -20 -20 -20 -20
31 33 35 34 35 38 37 36 39 39 38 38 37 28 24 30 23 20 23 22 20 16 3 0 0 4 5 3 1 0 -2 -7 -11 -11 -18 -20 -8 1 -5 -20 -20 -20 -20 -20 -20 -20 -13 6 -8 -7 -20 -12 4 5
19 18 22 30 33 33 33 34 35 34 31 29 28 29 27 22 19 17 11 9 5 5 -3 -16 -18 -11 -15 -16 -19 -20 -20 -20 -20 -19 -20 -20 -20 10 -20 -20 -20 -20 -8 -1 -19 -7 -20 -18 -9 -6 -9 -9 -7 -3
-20 -20 -20 -20 -3 9 15 20 23 24 23 20 15 14 13 7 2 -5 -3 -2 -9 -16 -12 -10 -15 -20 -20 -20 -20 -20 -20 -20 -20 -6 -12 3 -19 -20 -20 -20 -20 -20 -5 4 -4 -20 -20 -20 -19 -13 -19 -19 -1 -4
-20 -20 -20 -20 -20 -20 -16 -10 -7 -9 -10 -7 -1 -3 -6 8 -0 -4 -5 -6 -7 -8 -11 -16 -20 -20 -20 -20 -20 -20 -20 -6 -20 4 6 2 -1 20 8 4 9 -8 2 25 12 -20 -20 -11 -20 -20 -20 1 -20 0
-20 -20 -20 -20 -20 -20 -20 -20 -20 -20 -20 -16 -16 -20 -20 -20 -20 -20 -20 -20 -20 -20 -20 -20 -20 -20 -13 -20 4 -8 -12 -20 -20 5 7 1 14 -4 -2 8 11 6 23 27 11 -2 -20 -20 -11 -3 -8 -20 -20 -16
-20 -20 -20 -20 -20 -20 -20 -20 -20 -20 -20 -20 -20 -20 -20 -20 -20 -20 -20 -20 -20 -20 -7 -20 -2 5 -4 -13 -5 -7 -16 -1 -15 -14 -1 -19 -18 -3 -3 -3 1 6 4 20 17 6 7 -20 -20 -20 -17 -20 -20 -20
-20 -20 -20 -20 -20 -20 -20 -20 -20 -20 -20 -20 -20 -20 -20 -20 -20 -20 -20 -20 -20 -20 -20 2 2 5 8 -11 -4 7 1 9 11 6 -20 -2 -2 -18 -6 5 7 6 -1 4 -19 -20 -8 1 -1 -20 -20 -4 -20 -20
-20 -20 -20 -20 -20 -20 -20 -20 -20 -20 -20 -20 -20 -20 -20 -20 -20 -9 -20 -20 -20 -10 -7 4 4 6 5 9 3 -0 9 8 2 -15 2 1 -20 -20 -20 -20 -5 -4 -4 -4 -20 -20 -5 -12 -20 -20 -2 -20 -20 -20
-20 -20 -20 -20 -20 -20 -20 -20 -20 -20 -20 -20 -20 -20 -20 -20 -20 -20 -20 -20 -20 -19 4 5 3 6 2 1 4 -13 7 0 5 -16 -4 -13 -20 -20 -20 -20 -11 -3 -6 -4 -19 -20 -20 -10 -5 -5 -16 -20 -20 -20
-20 3 -20 -20 -20 -20 -20 -20 -20 -20 -20 -20 -20 -20 -20 -20 -20 -20 -20 -20 -19 8 7 2 -0 -3 6 5 -0 2 0 4 -20 5 -20 -20 -20 -20 -20 -7 -20 -20 -20 -8 -8 -7 -2 -4 3 2 2 5 -20 -20
-18 -20 -20 -20 -20 -20 -20 -20 -20 -20 -20 -20 -20 -20 -20 -20 -20 -20 -20 -20 -20 -20 -13 -20 -16 0 -3 -2 -6 8 -5 -3 -20 -13 -20 -20 -20 -20 -20 -20 -20 -20 -20 -20 -20 -20 -14 5 4 -20 -13 8 -17 -20
-20 -20 -20 -20 -20 -20 -20 -20 -20 -20 -20 -20 -20 -20 -20 -20 -20 -20 -20 -20 -20 -19 -20 -8 -20 -20 -20 -20 -20 -20 -12 -20 -10 -20 -20 -20 -20 -20 -20 -20 -20 -20 -20 -20 -13 -20 -20 -6 3 2 9 10 2 -12
-20 -20 -20 -20 -20 -20 -20 -20 -20 -20 -20 -20 -20 -20 -20 -20 -20 -20 -20 -20 -20 7 10 -1 -20 -20 -20 -20 -20 -20 -20 -20 -20 -3 -0 1 -8 -20 -20 -20 -20 -20 -20 -20 -20 -20 -12 -20 -16 3 13 9 8 6
-20 -20 -20 -20 -20 -20 -20 -20 -20 -20 -5 -16 -20 -20 1 -20 -20 -20 -20 -20 -20 9 1 3 -14 -20 -20 -20 -20 -20 -20 -20 -6 -20 -20 -1 -19 -20 -20 -20 -20 -20 -20 -20 -7 -3 1 3 -3 -4 10 16 10 14
-16 -20 -20 -20 -20 -20 -20 -20 -13 -1 -20 -20 -20 -20 -20 -3 -11 -20 -15 -1 -4 -20 -17 -20 -20 -20 -20 -20 -20 -20 -20 -20 -20 -20 -20 -20 -20 -20 -20 -20 -16 -16 -16 -3 1 5 6 0 2 8 5 3 5 -8
6 -9 -20 -20 -20 -20 -20 -3 -20 -18 -20 -20 -15 -10 -1 -16 -10 -13 -18 1 3 -20 -20 -20 -20 -20 -20 -20 -20 -20 -20 -20 -20 -20 -20 -20 -20 -20 -20 -12 -2 3 2 0 3 1 1 7 -1 -0 -3 8 8 -1
-16 -20 -20 -8 -20 -20 -20 -17 -13 -5 3 -2 4 -20 -15 -20 -20 -7 -7 -20 -20 -20 -20 -20 -20 -20 -20 -15 -20 -20 -20 -20 -20 -20 -20 -20 -20 -18 -2 0 1 1 2 1 3 3 1 9 -15 -2 4 10 7 4
-19 -20 -12 -20 3 -20 -20 -20 -20 3 1 -20 -20 -20 -20 -20 -10 -6 -20 -20 -20 -19 -19 -20 -20 -20 -20 -20 -20 -20 -20 -20 -20 -20 -20 -17 -9 -1 2 1 -0 2 1 3 3 0 10 1 -1 0 4 2 1 0
-6 -20 -20 -20 -20 -20 -20 -20 -20 -20 -20 -20 -20 -20 -20 -20 -20 -20 -20 -20 -20 -20 -20 -20 -20 -20 -20 -20 -20 -20 -20 -20 -20 -20 -20 -10 -0 3 3 0 2 5 -5 1 1 3 8 -0 -5 -5 -2 -2 -6 -8
-14 -20 -20 -20 -20 -20 -20 -20 -20 -20 -20 -20 -20 -20 -20 -20 -20 -20 -20 -20 -20 -20 -20 -20 -20 -20 -20 -20 -20 -20 -20 -20 -20 -20 -20 -13 -1 -4 -2 1 -1 -6 -20 2 1 1 2 -2 -15 -13 -9 -5 -10 -20
-20 -20 -20 -20 -20 -20 -20 -20 -20 -20 -20 -20 -20 -20 -20 -20 -20 -20 -20 -20 -20 -20 -20 -20 -20 -20 -20 -20 -20 -20 -20 -20 -20 -18 -1 0 -1 1 -18 -2 -6 -20 -9 2 3 1 -1 -1 -4 -5 -5 -6 -17 -3
-12 -20 -20 -20 -20 -20 -20 -20 -20 -20 -20 -20 -20 -20 -20 -20 -20 -20 -20 -20 -20 -20 -20 -20 -20 -20 -20 -20 -20 -20 -20 -20 -20 -20 -20 -19 2 5 -20 -20 -3 -3 2 2 -3 -1 -13 -6 -5 -3 -3 -18 -2 -3
-20 -20 -20 -20 -20 -20 -20 -20 -20 -20 -20 -20 -20 -20 -20 -20 -20 -20 -20 -20 -20 -20 -20 -20 -20 -20 -20 -20 -20 -20 -20 -20 -20 -20 -20 -20 0 -18 -20 -13 -2 -0 0 2 1 -5 -11 -13 -20 -20 -20 -20 -3 -7
-20 -20 -20 -20 -20 -20 -20 -20 -20 -20 -20 -20 -20 -20 -20 -20 -20 -20 -20 -20 -20 -20 -20 -20 -20 -20 -20 -20 -20 -20 -20 -20 -20 -20 -20 -20 -20 -18 -20 -20 -3 -1 -0 -1 -2 -2 -2 -1 -2 -20 -20 -20 -20 -20
-20 -20 -20 -20 -20 -20 -20 -20 -20 -20 -20 -20 -20 -20 -20 -20 -20 -20 -20 -12 -20 -20 -20 -20 -20 -20 -20 -20 -20 -20 -20 -20 -20 -20 -20 -20 -20 -7 -20 -20 -20 -2 -1 -3 -19 -20 -20 -5 -2 -4 -20 -20 -20 -20
-20 -20 -20 -20 -20 -20 -20 -20 -20 -20 -20 -20 -20 -20 -20 -20 -20 -20 -20 -20 -20 -2 -20 -20 -20 -20 -20 -20 -20 -20 -20 -20 -20 -20 -20 -20 -20 -20 -20 -17 -20 -7 -10 1 -1 -20 -20 -20 -20 -20 -20 -20 -20 -20